Valdosta Regional, GA

10:41 AM EDT on May 22, 2018 (GMT -0400)
Valdosta Regional

Weather History for KVLD - April, 2014

Change the Weather History Date:

Wednesday, April 16, 2014

  Actual Average Record
Temperature  
Mean Temperature 56 °F 66 °F  
Max Temperature 69 °F 79 °F 89 °F (2012)
Min Temperature 43 °F 52 °F 36 °F (2008)
Degree Days  
Heating Degree Days 9 2  
Month to date heating degree days 13 49  
Since 1 July heating degree days 1223 1615  
Cooling Degree Days 0 3  
Month to date cooling degree days 81 37  
Year to date cooling degree days 146 80  
Growing Degree Days 6 (Base 50)    
Moisture  
Dew Point 39 °F    
Average Humidity 55    
Maximum Humidity 70    
Minimum Humidity 39    
Precipitation  
Precipitation 0.00 in 0.10 in 0.32 in (1951)
Month to date precipitation 5.40 1.80  
Year to date precipitation 15.70 15.40  
Sea Level Pressure  
Sea Level Pressure 30.21 in    
Wind  
Wind Speed 9 mph (ENE)    
Max Wind Speed 17 mph    
Max Gust Speed 22 mph    
Visibility 10 miles    
Events      
T = Trace of Precipitation, MM = Missing Value Source: NWS Daily Summary

Daily Weather History Graph

Daily Weather History Graph

Search for Another Location

Airport or City:

Astronomy

Apr. 16, 2014 Rise Set
Actual Time 7:04 AM EDT 8:01 PM EDT
Civil Twilight 6:39 AM EDT 8:26 PM EDT
Nautical Twilight 6:10 AM EDT 8:56 PM EDT
Astronomical Twilight 5:40 AM EDT 9:26 PM EDT
Moon 9:38 PM EDT (4/16) 7:55 AM EDT (4/16)
Length of Visible Light 13h 47m
Length of Day
12h 57m
Full, 98% of the Moon is Illuminated
Apr 16
Full
Apr 22
Last Quarter
Apr 29
New
May 6
First Quarter
May 14
Full

Hourly Weather History & Observations

Time (EDT) Temp. Windchill Dew Point Humidity Pressure Visibility Wind Dir Wind Speed Gust Speed Precip Events Conditions
12:53 AM 48.0 °F - 36.0 °F 63% 30.11 in 10.0 mi Variable 4.6 mph - N/A   Clear
1:53 AM 46.9 °F - 35.1 °F 63% 30.12 in 10.0 mi Variable 5.8 mph - N/A   Clear
2:53 AM 46.0 °F 43.1 °F 35.1 °F 66% 30.13 in 10.0 mi North 5.8 mph - N/A   Clear
3:53 AM 45.0 °F 39.7 °F 33.1 °F 63% 30.14 in 10.0 mi North 10.4 mph - N/A   Clear
4:53 AM 44.1 °F 39.0 °F 34.0 °F 68% 30.15 in 10.0 mi North 9.2 mph - N/A   Clear
5:53 AM 43.0 °F 40.3 °F 34.0 °F 71% 30.17 in 10.0 mi North 4.6 mph - N/A   Clear
6:53 AM 43.0 °F 36.8 °F 34.0 °F 71% 30.17 in 10.0 mi North 11.5 mph - N/A   Clear
7:53 AM 45.0 °F 41.2 °F 34.0 °F 65% 30.21 in 10.0 mi NNE 6.9 mph - N/A   Clear
8:53 AM 48.9 °F - 35.1 °F 59% 30.21 in 10.0 mi NE 12.7 mph 20.7 mph N/A   Clear
9:53 AM 53.1 °F - 37.9 °F 57% 30.23 in 10.0 mi NE 12.7 mph 17.3 mph N/A   Clear
10:53 AM 57.0 °F - 37.9 °F 49% 30.26 in 10.0 mi NE 10.4 mph - N/A   Clear
11:53 AM 60.1 °F - 37.9 °F 44% 30.27 in 10.0 mi ENE 13.8 mph 20.7 mph N/A   Clear
12:53 PM 63.0 °F - 41.0 °F 45% 30.25 in 10.0 mi ENE 10.4 mph 16.1 mph N/A   Clear
2:53 PM 66.9 °F - 42.1 °F 40% 30.23 in 10.0 mi ESE 9.2 mph 19.6 mph N/A   Clear
3:53 PM 68.0 °F - 43.0 °F 40% 30.21 in 10.0 mi East 10.4 mph - N/A   Clear
4:53 PM 69.1 °F - 45.0 °F 42% 30.20 in 10.0 mi East 13.8 mph 17.3 mph N/A   Clear
5:53 PM 66.9 °F - 43.0 °F 42% 30.21 in 10.0 mi ESE 8.1 mph 18.4 mph N/A   Clear
6:53 PM 64.9 °F - 43.0 °F 45% 30.22 in 10.0 mi East 10.4 mph 18.4 mph N/A   Clear
7:53 PM 62.1 °F - 44.1 °F 52% 30.24 in 10.0 mi East 11.5 mph 19.6 mph N/A   Mostly Cloudy
8:53 PM 59.0 °F - 46.0 °F 62% 30.25 in 10.0 mi East 8.1 mph - N/A   Scattered Clouds
9:53 PM 59.0 °F - 46.0 °F 62% 30.27 in 10.0 mi East 10.4 mph 17.3 mph N/A   Overcast
10:53 PM 57.9 °F - 44.1 °F 60% 30.30 in 10.0 mi East 8.1 mph 20.7 mph N/A   Overcast
11:53 PM 54.0 °F - 42.1 °F 64% 30.30 in 10.0 mi East 6.9 mph - N/A   Clear